• In Austria
  • List of Countries
  • For 7 days
  • Water Temperature
  • Satellite Maps
  • Weather Map
  • News
  • Weather Widgets
  • user-avatar
    Login

    Hourly Weather Kingston upon Thames

    Today, 23 January, Tuesday

    Time Temperature Precipitation Wind Pressure Humidity
    00:00 +4°C° 0 mm 3 mps 762 mmHg 91%
    01:00 +5°C° 0 mm 3 mps 762 mmHg 92%
    02:00 +5°C° 0 mm 4 mps 762 mmHg 92%
    03:00 +5°C° 0 mm 4 mps 762 mmHg 93%
    04:00 +5°C° 0 mm 4 mps 761 mmHg 93%
    05:00 +6°C° 0 mm 5 mps 761 mmHg 93%
    06:00 +7°C° 0 mm 5 mps 760 mmHg 94%
    07:00 +8°C° 0.3 mm 6 mps 760 mmHg 93%
    08:00 +8°C° 0.3 mm 6 mps 760 mmHg 93%
    09:00 +9°C° 0.3 mm 7 mps 759 mmHg 93%
    10:00 +10°C° 0.1 mm 7 mps 759 mmHg 93%
    11:00 +10°C° 0.1 mm 7 mps 759 mmHg 93%
    12:00 +11°C° 0.1 mm 7 mps 759 mmHg 92%
    13:00 +11°C° 0.1 mm 7 mps 759 mmHg 91%
    14:00 +11°C° 0.1 mm 7 mps 759 mmHg 89%
    15:00 +11°C° 0.1 mm 7 mps 759 mmHg 88%
    16:00 +11°C° 0 mm 7 mps 759 mmHg 88%
    17:00 +11°C° 0 mm 7 mps 759 mmHg 88%
    18:00 +10°C° 0 mm 7 mps 759 mmHg 88%
    19:00 +10°C° 0.1 mm 7 mps 759 mmHg 89%
    20:00 +10°C° 0.1 mm 6 mps 759 mmHg 89%
    21:00 +10°C° 0.1 mm 6 mps 759 mmHg 90%
    22:00 +10°C° 0 mm 6 mps 759 mmHg 90%
    23:00 +10°C° 0 mm 6 mps 759 mmHg 91%

    Tomorrow, 24 January, Wednesday

    Time Temperature Precipitation Wind Pressure Humidity
    00:00 +10°C° 0 mm 6 mps 759 mmHg 91%
    01:00 +10°C° 0 mm 7 mps 758 mmHg 90%
    02:00 +10°C° 0 mm 7 mps 758 mmHg 89%
    03:00 +10°C° 0 mm 8 mps 757 mmHg 88%
    04:00 +11°C° 0.1 mm 8 mps 756 mmHg 88%
    05:00 +11°C° 0.1 mm 9 mps 755 mmHg 87%
    06:00 +11°C° 0.1 mm 10 mps 754 mmHg 87%
    07:00 +12°C° 0.2 mm 11 mps 753 mmHg 86%
    08:00 +12°C° 0.2 mm 12 mps 752 mmHg 85%
    09:00 +12°C° 0.2 mm 13 mps 751 mmHg 85%
    10:00 +12°C° 0.8 mm 13 mps 751 mmHg 84%
    11:00 +10°C° 0.8 mm 13 mps 751 mmHg 83%
    12:00 +10°C° 0.8 mm 12 mps 751 mmHg 82%
    13:00 +9°C° 1.9 mm 10 mps 751 mmHg 82%
    14:00 +9°C° 1.9 mm 8 mps 751 mmHg 81%
    15:00 +8°C° 1.9 mm 6 mps 751 mmHg 80%
    16:00 +8°C° 0.2 mm 6 mps 752 mmHg 79%
    17:00 +8°C° 0.2 mm 6 mps 752 mmHg 78%
    18:00 +7°C° 0.2 mm 6 mps 752 mmHg 77%
    19:00 +7°C° 0 mm 6 mps 753 mmHg 77%
    20:00 +7°C° 0 mm 6 mps 753 mmHg 76%
    21:00 +5°C° 0 mm 6 mps 753 mmHg 75%
    22:00 +6°C° 0 mm 5 mps 753 mmHg 76%
    23:00 +6°C° 0 mm 5 mps 753 mmHg 77%

    Day after tomorrow, 25 January, Thursday

    Time Temperature Precipitation Wind Pressure Humidity
    00:00 +6°C° 0 mm 5 mps 753 mmHg 78%
    01:00 +6°C° 0 mm 5 mps 753 mmHg 78%
    02:00 +6°C° 0 mm 5 mps 753 mmHg 78%
    03:00 +5°C° 0 mm 5 mps 753 mmHg 78%
    04:00 +5°C° 0 mm 5 mps 753 mmHg 77%
    05:00 +5°C° 0 mm 5 mps 753 mmHg 77%
    06:00 +5°C° 0 mm 5 mps 753 mmHg 76%
    07:00 +4°C° 0 mm 6 mps 753 mmHg 75%
    08:00 +4°C° 0 mm 6 mps 753 mmHg 75%
    09:00 +4°C° 0 mm 6 mps 753 mmHg 74%
    10:00 +5°C° 0 mm 6 mps 753 mmHg 70%
    11:00 +6°C° 0 mm 7 mps 753 mmHg 66%
    12:00 +7°C° 0 mm 8 mps 753 mmHg 63%
    13:00 +8°C° 0 mm 7 mps 753 mmHg 63%
    14:00 +6°C° 0 mm 7 mps 753 mmHg 64%
    15:00 +7°C° 0 mm 6 mps 753 mmHg 64%
    16:00 +7°C° 0 mm 6 mps 753 mmHg 67%
    17:00 +6°C° 0 mm 5 mps 753 mmHg 70%
    18:00 +5°C° 0 mm 5 mps 754 mmHg 72%
    19:00 +5°C° 0 mm 5 mps 754 mmHg 73%
    20:00 +5°C° 0 mm 5 mps 754 mmHg 73%
    21:00 +5°C° 0 mm 5 mps 755 mmHg 74%
    22:00 +5°C° 0 mm 5 mps 755 mmHg 77%
    23:00 +3°C° 0 mm 5 mps 755 mmHg 80%

    26 January, Friday

    Time Temperature Precipitation Wind Pressure Humidity
    00:00 +4°C° 0 mm 4 mps 756 mmHg 82%
    01:00 +4°C° 0 mm 4 mps 756 mmHg 84%
    02:00 +3°C° 0 mm 4 mps 756 mmHg 86%
    03:00 +3°C° 0 mm 3 mps 757 mmHg 88%
    04:00 +2°C° 0 mm 3 mps 757 mmHg 88%
    05:00 +2°C° 0 mm 3 mps 758 mmHg 88%
    06:00 +2°C° 0 mm 3 mps 759 mmHg 88%
    07:00 +2°C° 0 mm 3 mps 759 mmHg 87%
    08:00 +2°C° 0 mm 3 mps 760 mmHg 86%
    09:00 +3°C° 0 mm 2 mps 761 mmHg 86%
    10:00 +3°C° 0 mm 3 mps 762 mmHg 82%
    11:00 +5°C° 0 mm 3 mps 762 mmHg 79%
    12:00 +7°C° 0 mm 3 mps 763 mmHg 75%
    13:00 +7°C° 0 mm 3 mps 763 mmHg 75%
    14:00 +7°C° 0 mm 3 mps 763 mmHg 75%
    15:00 +7°C° 0 mm 3 mps 764 mmHg 76%
    16:00 +6°C° 0 mm 2 mps 764 mmHg 80%
    17:00 +5°C° 0 mm 2 mps 765 mmHg 84%
    18:00 +4°C° 0 mm 2 mps 765 mmHg 88%
    19:00 +4°C° 0 mm 2 mps 765 mmHg 89%
    20:00 +4°C° 0 mm 2 mps 766 mmHg 89%
    21:00 +4°C° 0 mm 2 mps 766 mmHg 90%
    22:00 +5°C° 0 mm 1 mps 766 mmHg 90%
    23:00 +5°C° 0 mm 1 mps 766 mmHg 90%

    27 January, Saturday

    Time Temperature Precipitation Wind Pressure Humidity
    00:00 +4°C° 0 mm 1 mps 767 mmHg 91%
    01:00 +4°C° 0 mm 1 mps 767 mmHg 91%
    02:00 +4°C° 0 mm 1 mps 766 mmHg 91%
    03:00 +4°C° 0 mm 1 mps 766 mmHg 91%
    04:00 +4°C° 0 mm 1 mps 766 mmHg 91%
    05:00 +4°C° 0 mm 1 mps 766 mmHg 91%
    06:00 +4°C° 0 mm 1 mps 766 mmHg 91%
    07:00 +4°C° 0 mm 2 mps 767 mmHg 90%
    08:00 +4°C° 0 mm 2 mps 767 mmHg 89%
    09:00 +4°C° 0 mm 2 mps 768 mmHg 88%
    10:00 +5°C° 0 mm 3 mps 768 mmHg 86%
    11:00 +7°C° 0 mm 3 mps 768 mmHg 84%
    12:00 +7°C° 0 mm 4 mps 768 mmHg 82%
    13:00 +7°C° 0 mm 4 mps 768 mmHg 83%
    14:00 +8°C° 0 mm 4 mps 768 mmHg 85%
    15:00 +8°C° 0 mm 4 mps 768 mmHg 86%
    16:00 +8°C° 0 mm 4 mps 768 mmHg 88%
    17:00 +7°C° 0 mm 4 mps 768 mmHg 90%
    18:00 +7°C° 0 mm 5 mps 768 mmHg 92%
    19:00 +7°C° 0 mm 5 mps 768 mmHg 92%
    20:00 +8°C° 0 mm 5 mps 768 mmHg 91%
    21:00 +8°C° 0 mm 5 mps 768 mmHg 91%
    22:00 +8°C° 0 mm 5 mps 769 mmHg 92%
    23:00 +8°C° 0 mm 5 mps 769 mmHg 94%

    28 January, Sunday

    Time Temperature Precipitation Wind Pressure Humidity
    00:00 +8°C° 0 mm 5 mps 769 mmHg 95%
    01:00 +9°C° 0 mm 5 mps 769 mmHg 95%
    02:00 +10°C° 0 mm 4 mps 769 mmHg 95%
    03:00 +10°C° 0 mm 4 mps 769 mmHg 95%
    04:00 +10°C° 0 mm 4 mps 770 mmHg 95%
    05:00 +10°C° 0 mm 4 mps 770 mmHg 95%
    06:00 +10°C° 0 mm 4 mps 770 mmHg 96%
    07:00 +10°C° 0 mm 4 mps 771 mmHg 96%
    08:00 +10°C° 0 mm 4 mps 771 mmHg 96%
    09:00 +10°C° 0 mm 4 mps 771 mmHg 96%
    10:00 +10°C° 0 mm 4 mps 772 mmHg 93%
    11:00 +11°C° 0 mm 4 mps 772 mmHg 91%
    12:00 +12°C° 0 mm 5 mps 772 mmHg 88%
    13:00 +12°C° 0 mm 5 mps 772 mmHg 89%
    14:00 +12°C° 0 mm 5 mps 772 mmHg 89%
    15:00 +10°C° 0 mm 5 mps 772 mmHg 89%
    16:00 +11°C° 0 mm 4 mps 772 mmHg 89%
    17:00 +11°C° 0 mm 4 mps 772 mmHg 88%
    18:00 +11°C° 0 mm 4 mps 772 mmHg 88%
    19:00 +10°C° 0 mm 4 mps 773 mmHg 88%
    20:00 +10°C° 0 mm 4 mps 773 mmHg 87%
    21:00 +10°C° 0 mm 4 mps 773 mmHg 86%
    22:00 +10°C° 0 mm 4 mps 773 mmHg 87%
    23:00 +8°C° 0 mm 4 mps 773 mmHg 87%
    Show more